sat.trackr.live / text

‹ back to catalog

STARLINK-34506

NORAD 64432 · 2025-129W

PAYLOAD ACTIVE UNKNOWN

§ Identity

Operator
Country
US
Launch date
2025-06-17
Launch site
AFWTR
Launch vehicle
Mass (kg)
RCS (m²)

Purposes: comms

External: N2YO · Heavens-Above · Gunter

§ Orbital elements

Epoch: 2026-05-25T00:13:57.927072Z

Period
96.11 min
Inclination
70.0004°
Eccentricity
0.0003335
Mean motion
14.98344923 rev/d
Perigee alt
569.7 km
Apogee alt
574.3 km
Semi-major
6,950.1 km
B*
1.5201e-4
RAAN
241.8481°
Arg perigee
268.3936°
Mean anomaly
91.6841°
Rev number
5,266

§ Raw data

STARLINK-345061 64432U 25129W   26145.00969823  .00001722  00000+0  15201-3 0  99962 64432  70.0004 241.8481 0003335 268.3936  91.6841 14.98344923 52666

JSON: /api/v1/satellites/64432 · /tle

For live sub-satellite position, see the globe view (requires WebGL).

§ Visibility from observer

Set your observer location to see the next 7 days of passes ≥ 10°. The values pass through the URL so the page stays shareable.

No JS? Fill the form by hand. The geolocation button needs JavaScript.